Le nostre stazioni meteo in Italia

Pubblicità
Il mio iltempo24.it
Achnagart, Gran Bretagna (99191): Temperatura & dewpoint: 17.01.2017 18:00:00 - 23.01.2017 18:00:00 (GMT)Achnagart, Gran Bretagna (99191): precipitazioni: 17.01.2017 18:00:00 - 23.01.2017 18:00:00 (GMT)
Data & Tempo tt [°C] td [°C] rr [mm]
23.01.2017 18:00:00 7,8 2,0 0,0
23.01.2017 17:00:00 7,8 1,9 0,0
23.01.2017 16:00:00 7,2 1,6 0,0
23.01.2017 15:00:00 7,5 0,9 0,0
23.01.2017 14:00:00 7,1 0,6 0,0
23.01.2017 13:00:00 5,8 -1,1 0,0
23.01.2017 12:00:00 5,6 -2,2 0,0
23.01.2017 11:00:00 5,1 -1,5 0,0
23.01.2017 10:00:00 4,1 0,6 0,0
23.01.2017 09:00:00 -1,5 -1,7 0,0
23.01.2017 08:00:00 -1,6 -2,0 0,0
23.01.2017 07:00:00 -1,0 -1,4 0,0
23.01.2017 06:00:00 0,4 -0,3 0,0
23.01.2017 05:00:00 2,2 1,1 0,0
23.01.2017 04:00:00 2,5 1,3 0,0
23.01.2017 03:00:00 3,9 3,0 0,0
23.01.2017 02:00:00 3,7 3,1 0,0
23.01.2017 01:00:00 3,6 3,1 0,0
23.01.2017 00:00:00 3,3 2,8 0,0
22.01.2017 23:00:00 3,1 2,8 0,0
22.01.2017 22:00:00 3,0 2,8 0,0
22.01.2017 21:00:00 2,9 2,7 0,0
22.01.2017 20:00:00 2,7 2,6 0,0
22.01.2017 19:00:00 2,8 2,6 0,0
22.01.2017 18:00:00 3,1 2,8 0,0
22.01.2017 17:00:00 3,2 2,8 0,0
22.01.2017 16:00:00 3,4 2,7 0,0
22.01.2017 15:00:00 3,6 2,8 0,0
22.01.2017 14:00:00 3,8 2,9 0,0
22.01.2017 13:00:00 3,7 2,3 0,0
22.01.2017 12:00:00 3,6 2,3 0,0
22.01.2017 11:00:00 3,3 1,8 0,0
22.01.2017 10:00:00 3,4 1,1 0,0
22.01.2017 09:00:00 3,1 0,8 0,0
22.01.2017 08:00:00 2,8 1,6 0,0
22.01.2017 07:00:00 1,4 0,2 0,0
22.01.2017 06:00:00 0,7 -0,1 0,0
22.01.2017 05:00:00 1,1 0,3 0,0
22.01.2017 04:00:00 0,2 -0,3 0,0
22.01.2017 03:00:00 -0,3 -0,8 0,0
22.01.2017 02:00:00 -0,3 -0,8 0,0
22.01.2017 01:00:00 -1,6 -2,2 0,0
22.01.2017 00:00:00 -1,3 -2,2 0,0
21.01.2017 23:00:00 -0,7 -2,3 0,0
21.01.2017 22:00:00 1,6 -1,9 0,0
21.01.2017 21:00:00 4,3 -0,7 0,0
21.01.2017 20:00:00 3,5 -1,3 0,0
21.01.2017 19:00:00 2,6 -1,7 0,0
21.01.2017 18:00:00 5,6 -1,5 0,0
21.01.2017 17:00:00 5,8 -1,8 0,0
21.01.2017 16:00:00 6,7 -1,6 0,0
21.01.2017 15:00:00 6,5 -1,3 0,0
21.01.2017 14:00:00 6,3 -0,3 0,0
21.01.2017 13:00:00 6,5 0,6 0,0
21.01.2017 12:00:00 1,4 1,3 0,2
21.01.2017 11:00:00 -2,4 -2,5 0,0
21.01.2017 10:00:00 -2,5 -2,5 0,0
21.01.2017 09:00:00 -3,3 -3,5 0,0
21.01.2017 08:00:00 -3,0 -3,1 0,0
21.01.2017 07:00:00 -2,4 -2,4 0,0
21.01.2017 06:00:00 -2,7 -2,8 0,0
21.01.2017 05:00:00 -2,6 -2,7 0,0
21.01.2017 04:00:00 -2,4 -2,5 0,0
21.01.2017 03:00:00 -2,2 -2,3 0,0
21.01.2017 02:00:00 -0,7 -0,7 0,0
21.01.2017 01:00:00 -0,7 -0,7 0,0
21.01.2017 00:00:00 -0,8 -0,8 0,0
20.01.2017 23:00:00 -2,7 -2,7 0,0
20.01.2017 22:00:00 -2,5 -2,5 0,0
20.01.2017 21:00:00 -1,8 -1,8 0,0
20.01.2017 20:00:00 -1,6 -1,6 0,0
20.01.2017 19:00:00 -1,5 -1,5 0,0
20.01.2017 18:00:00 -1,0 -1,1 0,0
20.01.2017 17:00:00 -0,6 -0,8 0,0
20.01.2017 16:00:00 0,6 0,5 0,0
20.01.2017 15:00:00 1,0 0,7 0,0
20.01.2017 14:00:00 2,0 1,6 0,0
20.01.2017 13:00:00 2,7 2,0 0,0
20.01.2017 12:00:00 3,4 3,4 0,0
20.01.2017 11:00:00 -0,1 -0,1 0,0
20.01.2017 10:00:00 -0,5 -0,6 0,0
20.01.2017 09:00:00 0,2 0,1 0,0
20.01.2017 08:00:00 0,2 -0,2 0,0
20.01.2017 07:00:00 0,5 -0,1 0,0
20.01.2017 06:00:00 2,0 1,4 0,0
20.01.2017 05:00:00 2,7 1,4 0,0
20.01.2017 04:00:00 4,6 2,0 0,0
20.01.2017 03:00:00 7,0 4,0 0,0
20.01.2017 02:00:00 7,5 4,3 0,0
20.01.2017 01:00:00 7,0 4,7 0,0
20.01.2017 00:00:00 7,3 4,4 0,0
19.01.2017 23:00:00 8,0 4,7 0,0
19.01.2017 22:00:00 8,2 4,9 0,0
19.01.2017 21:00:00 8,6 4,9 0,0
19.01.2017 20:00:00 8,8 4,8 0,0
19.01.2017 19:00:00 9,2 4,8 0,0
19.01.2017 18:00:00 9,3 4,2 0,0
19.01.2017 17:00:00 9,1 4,8 0,0
19.01.2017 16:00:00 9,4 4,6 0,0
19.01.2017 15:00:00 9,2 5,3 0,0
19.01.2017 14:00:00 9,7 4,7 0,0
19.01.2017 13:00:00 9,8 4,5 0,0
19.01.2017 12:00:00 9,6 4,7 0,0
19.01.2017 11:00:00 9,5 4,7 0,0
19.01.2017 10:00:00 10,0 4,2 0,0
19.01.2017 09:00:00 9,8 4,3 0,0
19.01.2017 08:00:00 8,7 4,7 0,0
19.01.2017 07:00:00 9,9 4,0 0,0
19.01.2017 06:00:00 9,9 4,4 0,0
19.01.2017 05:00:00 9,7 5,1 0,0
19.01.2017 04:00:00 9,5 5,6 0,0
19.01.2017 03:00:00 9,1 6,3 0,0
19.01.2017 02:00:00 9,4 5,9 0,0
19.01.2017 01:00:00 9,3 6,4 0,0
19.01.2017 00:00:00 8,8 6,8 0,2
18.01.2017 23:00:00 8,8 6,7 0,0
18.01.2017 22:00:00 8,7 7,0 0,0
18.01.2017 21:00:00 8,3 7,2 0,0
18.01.2017 20:00:00 8,3 7,3 0,0
18.01.2017 19:00:00 8,3 7,4 0,0
18.01.2017 18:00:00 8,4 7,4 0,2
18.01.2017 17:00:00 9,1 6,7 0,2
18.01.2017 16:00:00 9,5 6,8 0,0
18.01.2017 15:00:00 10,0 6,5 0,0
18.01.2017 14:00:00 10,4 6,5 0,0
18.01.2017 13:00:00 10,5 5,8 0,0
18.01.2017 12:00:00 10,5 5,9 0,0
18.01.2017 11:00:00 10,2 5,4 0,0
18.01.2017 10:00:00 9,7 5,6 0,0
18.01.2017 09:00:00 9,9 5,5 0,0
18.01.2017 08:00:00 8,8 5,8 0,0
18.01.2017 07:00:00 9,4 5,3 0,0
18.01.2017 06:00:00 9,4 4,9 0,0
18.01.2017 05:00:00 9,3 4,9 0,0
18.01.2017 04:00:00 9,3 5,0 0,0
18.01.2017 03:00:00 9,5 5,1 0,0
18.01.2017 02:00:00 9,5 4,9 0,0
18.01.2017 01:00:00 10,0 4,6 0,0
18.01.2017 00:00:00 10,1 4,9 0,0
17.01.2017 23:00:00 10,2 4,7 0,0
17.01.2017 22:00:00 10,2 4,7 0,0
17.01.2017 21:00:00 10,8 4,5 0,0
17.01.2017 20:00:00 10,6 4,9 0,0
17.01.2017 19:00:00 10,6 6,1 0,0
17.01.2017 18:00:00 9,9 6,8 0,0

tt = Temperatura
td = dewpoint
rr = precipitazioni

Stazioni seguenti

WeatherPro
AMSI
MeteoEarth